Location: Coupvray
(48.8929°N, 2.7967°E)
Time: 10:48:26
(UTC+00:00)

Helios 1A - Pass Details

Date: 14 July 2020
Orbit: 587 x 600 km, 98.2° (Epoch: 01 August)

Event Time Altitude Azimuth Distance (km) Brightness Sun altitude
Exits shadow 00:38:49 24° 250° (WSW) 1,244 4.3 -18.8°
Maximum altitude 00:39:31 25° 266° (W) 1,209 4.4 -18.8°
Drops below altitude 10° 00:42:59 10° 322° (NW) 1,927 6.1 -18.7°
Sets 00:45:28 0° 336° (NNW) 2,836 7.3 -18.6°
